Regional Weather Roundup
Issued by NWS

Home | Current Version | Previous Version | Text Only | Print | Product List | Glossary On
Versions: 1 2 3 4 5 6 7 8 9 10 11 12 13 14 15 16 17 18 19 20 21 22 23 24 25 26 27 28 29 30 31 32 33 34 35 36 37 38 39 40 41 42 43 44 45 46 47 48 49 50
000
ASUS43 KOAX 010202
RWRNE

WEATHER ROUNDUP FOR NEBRASKA
NATIONAL WEATHER SERVICE OMAHA NE
900 PM CDT TUE SEP 30 2014

NOTES: SATELLITE DATA IS BEING USED TO AUGMENT CLOUD COVER ABOVE
       12000 FEET.
       "FAIR" INDICATES FEW OR NO CLOUDS BELOW 12,000 FEET WITH NO
       SIGNIFICANT WEATHER AND/OR OBSTRUCTIONS TO VISIBILITY.

  * THESE STATIONS DO NOT REPORT WEATHER SUCH AS RAIN...SNOW OR FOG.

NEZ001>004-019>022-054>056-010300-
NEBRASKA PANHANDLE

CITY           SKY/WX    TMP DP  RH WIND       PRES   REMARKS
SCOTTSBLUFF    MOCLDY    60  42  51 W10       29.76R
ALLIANCE       PTCLDY    51  43  74 SW10      29.74R
CHADRON        CLOUDY    56  48  74 CALM      29.70R
KIMBALL        CLOUDY    57  41  55 W8        29.81R
SIDNEY         CLOUDY    55  47  74 W3        29.80R
$$

NEZ057>060-069>072-079>082-010300-
SOUTHWEST NEBRASKA

CITY           SKY/WX    TMP DP  RH WIND       PRES   REMARKS
NORTH PLATTE   MOCLDY    61  48  62 S7        29.72S
IMPERIAL       MOCLDY    61  46  57 CALM      29.75R
LEXINGTON      PTCLDY    62  51  66 SE6       29.73R
MCCOOK         PTCLDY    65  48  54 CALM      29.73R
OGALLALA       CLOUDY    61  47  60 CALM      29.74S
$$

NEZ005>010-023>029-035>040-094-010300-
NORTH CENTRAL NEBRASKA

CITY           SKY/WX    TMP DP  RH WIND       PRES   REMARKS
VALENTINE      MOCLDY    59  45  59 NW3       29.68R
AINSWORTH      MOCLDY    55  46  72 S7        29.69S
BROKEN BOW     MOCLDY    56  48  74 CALM      29.72R
O`NEILL        MOCLDY    69  62  78 SE12      29.71R
ORD            CLEAR     67  57  70 S9        29.71R
THEDFORD       MOCLDY    62  46  54 SW5       29.72S
$$

NEZ041-046>049-061>064-073>077-083>087-010300-
SOUTH CENTRAL NEBRASKA

CITY           SKY/WX    TMP DP  RH WIND       PRES   REMARKS
GRAND ISLAND   CLEAR     63  59  87 SE7       29.75R
AURORA         CLEAR     61  61  99 SE6       29.75R
HASTINGS       CLEAR     64  59  83 SE5       29.74R
HEBRON         CLOUDY    65  62  91 E7        29.74R
HOLDREGE       CLEAR     60  54  82 CALM      29.73R
KEARNEY *      CLEAR     61  54  77 E7        29.74R
YORK           PTCLDY    61  61 100 SE7       29.77R
$$

NEZ011>018-030>034-042>045-010300-
NORTHEAST NEBRASKA

CITY           SKY/WX    TMP DP  RH WIND       PRES   REMARKS
NORFOLK        MOCLDY    64  62  93 SE10      29.75R
ALBION         PTCLDY    63  59  88 SE7       29.74R
BLAIR          CLOUDY    64  62  92 SE6       29.78S
COLUMBUS *     MOCLDY    63  59  88 SE7       29.76S
FREMONT        PTCLDY    63  61  93 SE6       29.78R
TEKAMAH        PTCLDY    64  62  93 SE8       29.76F
WAYNE          PTCLDY    64  62  94 SE10      29.75S
$$

NEZ050>053-065>068-078-088>093-010300-
SOUTHEAST NEBRASKA

CITY           SKY/WX    TMP DP  RH WIND       PRES   REMARKS
LINCOLN        LGT RAIN  64  62  93 E6        29.76S
OMAHA EPPLEY   LGT RAIN  66  62  87 SE10      29.78F
BEATRICE       TSTM      64  63  94 E13       29.76S
FALLS CITY     CLOUDY    67  65  93 E5        29.76F
NEBRASKA CITY  CLOUDY    64  64 100 E9        29.78F FOG
PLATTSMOUTH      N/A     64  63  94 E6        29.79F
$$

NEZ044-045-051>053-067-010300-
OMAHA AREA

CITY           SKY/WX    TMP DP  RH WIND       PRES   REMARKS
OMAHA EPPLEY   LGT RAIN  66  62  87 SE10      29.78F
BLAIR          CLOUDY    64  62  92 SE6       29.78S
FREMONT        PTCLDY    63  61  93 SE6       29.78R
MILLARD        MOCLDY    65  64  94 E3        29.77F
OFFUTT AFB     HVY RAIN  65  65 100 E12       29.78F
PLATTSMOUTH      N/A     64  63  94 E6        29.79F
WAHOO          FAIR      61  58  91 SE6       29.77R
$$


USA.gov is the U.S. government's official web portal to all federal, state and local government web resources and services.